GFSSW_850_spd_273.txt.gz
Wind_Speed
10 10 10 11 12 12 12 12 12 11 10 11 11 13 12 13 13 14 6 10 9 10 10 12 15 17 16 19 19 13 13 14 14 11 4 13 9 8 6 6 6 5 3 22 22
10 11 12 12 13 13 13 13 13 12 12 11 9 12 11 11 10 8 9 9 10 9 10 15 17 17 20 20 20 17 13 19 13 2 10 15 7 14 8 9 9 10 16 22 23
11 12 12 13 13 13 13 13 13 12 12 10 9 9 10 9 4 6 4 3 6 13 10 11 11 16 20 19 22 20 18 16 9 7 10 6 6 11 10 13 14 14 21 22 22
12 12 13 14 14 13 13 13 12 12 11 9 8 6 6 6 2 4 3 1 4 11 10 12 11 16 18 20 21 18 21 24 18 2 11 8 4 8 11 5 17 16 20 22 23
13 13 14 14 15 14 14 13 11 9 9 7 5 4 4 5 1 5 4 2 5 8 11 14 15 15 16 18 17 21 19 18 21 7 11 13 8 11 14 6 5 20 21 22 22
14 14 15 15 16 15 13 10 10 8 5 3 3 3 3 11 1 4 5 5 5 7 9 13 11 14 15 17 16 14 22 22 17 15 12 12 13 10 13 16 11 19 21 21 22
14 15 15 15 15 13 9 10 8 6 4 1 1 1 6 3 3 7 9 4 6 5 7 10 8 7 12 10 15 19 13 17 13 14 15 12 15 12 15 19 15 18 21 21 21
15 15 15 15 15 10 8 11 6 5 2 1 2 2 1 4 6 9 6 5 6 5 5 8 9 12 12 6 5 14 15 16 19 17 9 11 17 18 20 16 19 21 21 20 21
15 15 15 15 14 8 9 9 5 4 4 2 4 3 6 2 6 9 9 6 4 4 5 7 10 14 12 11 13 13 15 18 20 18 13 15 18 19 27 19 20 20 20 21 21
15 15 14 14 12 8 10 4 3 8 6 4 2 6 7 5 6 7 10 7 6 7 8 10 10 10 12 13 13 9 16 15 8 15 11 17 16 15 6 13 19 20 21 20 21
15 14 14 12 7 8 8 8 2 1 5 6 4 3 4 4 4 8 12 10 8 10 12 14 10 11 16 11 10 11 13 11 9 2 4 14 15 18 17 14 19 22 21 21 20
16 14 13 11 4 7 9 2 5 3 3 2 1 0 4 6 7 10 13 12 10 13 10 6 12 5 5 5 8 11 13 13 9 4 11 15 16 16 15 15 18 20 21 23 22
16 14 12 8 4 6 4 3 4 4 8 6 3 4 1 11 7 14 16 15 9 12 9 15 5 9 6 10 11 13 14 12 13 8 11 15 13 14 13 13 18 19 22 24 25
16 12 9 4 3 1 1 6 6 3 5 6 5 4 6 6 7 4 12 12 8 12 11 9 2 5 11 10 10 12 14 10 12 12 12 19 13 17 20 18 17 22 24 24 25
15 10 5 4 1 4 6 7 4 1 5 3 5 4 6 7 6 10 12 11 15 7 7 6 6 10 11 11 8 7 3 7 10 12 14 16 9 15 9 13 13 18 26 25 25
14 8 2 4 4 6 8 5 2 7 2 6 2 3 10 3 6 4 10 10 10 9 10 13 5 5 12 0 7 12 6 13 12 13 14 18 17 14 13 17 13 16 21 23 24
13 5 1 2 3 8 8 4 6 6 3 5 3 4 1 1 5 6 10 13 9 9 13 16 14 13 8 11 14 12 11 10 12 12 13 17 17 16 5 6 10 10 16 26 24
12 4 1 1 6 8 5 8 6 6 0 3 4 4 6 4 3 6 8 8 2 10 13 11 7 4 5 11 12 12 12 11 15 11 12 7 6 11 11 12 13 9 14 12 18
10 4 1 4 5 6 9 8 4 2 4 3 7 9 8 5 6 4 5 9 6 6 9 7 5 5 2 8 10 13 10 13 13 15 12 12 11 6 11 11 13 15 17 16 18
9 3 4 6 5 4 7 9 1 3 3 5 11 3 5 5 8 6 11 3 1 4 7 5 11 3 3 7 14 12 12 8 9 14 16 15 12 10 8 8 5 12 14 16 24
6 6 1 5 5 9 9 3 3 4 3 3 3 4 3 3 6 4 1 8 2 4 8 7 8 15 7 12 5 5 12 7 9 11 11 12 8 14 5 12 9 12 21 16 14
4 5 4 4 10 5 5 1 2 5 4 5 5 6 5 0 6 5 4 3 4 7 8 6 6 11 16 17 6 9 16 17 10 14 8 13 14 12 5 13 9 13 13 5 15
9 8 5 2 6 7 3 4 3 5 4 3 5 4 2 4 4 6 4 10 3 5 8 7 5 9 15 17 13 10 13 4 9 9 16 15 12 8 9 19 32 26 28 23 37
7 3 4 2 4 8 2 9 8 2 3 5 5 2 6 9 8 5 6 7 1 3 3 4 9 12 13 17 14 10 5 10 11 9 13 15 21 17 18 8 23 22 19 26 27
3 3 3 2 4 5 4 5 9 7 8 6 6 9 8 9 10 11 10 7 6 7 8 4 12 15 16 18 15 17 17 17 18 18 17 18 20 17 18 19 25 24 27 28 28
7 5 3 7 5 7 4 7 10 4 4 6 7 5 5 9 11 14 8 2 9 5 6 3 9 10 16 16 18 20 21 21 22 21 21 19 20 17 21 13 20 25 27 22 26
6 5 5 1 6 7 7 5 3 3 4 8 6 6 9 4 9 8 9 13 13 9 9 9 10 10 16 15 16 18 16 20 19 19 17 17 17 13 9 11 16 22 16 20 22

GFSSW_850_spd_276.txt.gz
Wind_Speed
9 9 10 11 11 12 12 12 12 12 12 12 13 13 13 15 14 17 10 8 9 13 10 5 11 14 15 17 20 21 13 14 22 20 15 24 9 10 6 11 8 10 25 27 25
9 10 11 11 12 13 13 12 13 13 11 12 11 12 12 16 17 15 12 14 12 10 7 9 12 14 18 20 21 19 13 20 22 11 8 7 4 15 8 10 14 22 27 27 26
11 12 12 12 13 14 14 13 13 12 11 11 10 11 11 14 12 1 8 5 5 8 10 9 11 14 18 20 23 23 17 21 25 21 14 19 5 13 16 15 14 18 25 27 25
12 13 13 14 14 15 14 13 13 12 10 9 9 9 9 9 2 4 3 2 2 11 8 9 14 17 16 16 23 20 23 25 27 27 8 11 3 6 4 9 32 6 23 26 25
13 13 14 15 15 15 14 12 9 9 8 8 8 7 7 7 11 3 4 1 4 9 10 10 13 15 15 19 20 18 18 23 24 24 6 14 15 5 9 21 20 37 26 26 24
14 15 15 15 16 15 12 9 9 5 4 4 6 6 6 10 1 2 6 3 4 7 8 11 12 13 17 18 17 18 20 23 25 18 16 11 16 4 12 22 46 35 31 25 23
15 15 15 15 16 14 9 9 7 3 2 1 4 6 8 12 2 6 8 6 6 7 9 9 13 13 11 13 18 20 17 11 19 19 16 10 14 14 16 17 16 30 24 26 24
16 15 15 15 15 10 9 10 7 3 1 2 3 5 7 5 4 7 8 6 6 6 7 8 10 12 17 17 13 13 15 14 18 18 19 15 15 16 19 19 22 24 25 27 27
16 16 15 14 13 8 9 6 4 3 1 3 2 3 9 3 9 10 9 6 5 5 6 7 9 14 16 13 11 12 12 19 18 20 17 12 17 16 21 25 20 32 42 24 26
17 16 15 13 11 8 7 3 2 5 2 3 4 9 10 4 8 8 10 7 6 5 5 7 9 10 13 12 13 10 18 13 15 15 14 13 15 14 26 26 19 10 19 24 25
16 15 14 12 7 7 8 5 4 4 8 10 6 9 6 3 3 8 10 9 9 7 11 12 10 12 14 17 19 10 15 14 8 8 3 8 11 16 18 10 8 12 17 15 20
16 14 13 10 3 4 7 5 6 7 9 7 3 6 5 4 7 9 10 9 10 11 12 10 12 15 12 6 10 10 14 14 15 7 2 10 14 14 14 15 15 17 19 24 28
16 14 11 8 4 4 4 5 8 8 7 11 5 2 3 10 9 14 13 14 11 11 13 9 11 4 3 7 10 12 13 14 14 14 10 10 16 16 13 18 20 19 20 24 31
17 13 9 3 4 5 4 8 8 6 5 12 10 6 8 10 6 7 10 16 9 12 14 9 13 5 5 9 11 11 14 15 12 13 10 13 11 15 13 14 17 24 24 24 26
17 12 6 3 3 6 8 8 5 2 5 6 7 5 12 8 10 12 8 12 13 16 5 14 7 5 11 13 10 11 8 8 10 11 14 17 11 15 9 18 20 18 27 30 30
16 11 4 3 3 5 8 7 4 5 3 8 5 8 13 15 8 7 6 12 13 13 11 14 8 5 9 11 3 12 9 9 12 12 12 17 15 16 15 11 9 11 16 28 32
15 9 6 6 4 9 9 6 6 8 2 6 6 6 6 5 9 7 9 8 11 7 9 10 13 12 8 11 11 11 9 9 11 11 14 10 16 13 14 9 12 12 26 24 23
14 8 7 9 6 10 7 8 8 5 2 5 3 3 7 6 7 6 6 11 10 7 11 9 15 9 6 5 12 10 13 9 15 13 8 15 8 2 7 4 8 12 9 14 13
13 6 5 3 7 6 10 8 8 10 5 3 7 9 9 5 6 4 9 11 4 8 6 9 15 11 10 5 10 14 12 13 11 17 13 13 3 11 10 5 14 10 14 3 6
15 6 11 5 6 5 8 14 10 4 6 4 11 5 9 11 6 8 9 5 2 5 11 13 11 8 7 5 11 14 14 10 7 8 13 14 7 11 14 13 19 24 21 26 26
10 8 4 4 5 9 9 8 4 9 5 3 8 5 9 5 4 12 1 8 4 5 10 13 8 14 15 8 10 5 4 11 4 5 7 11 7 16 20 14 12 24 30 19 19
6 5 3 1 9 12 12 11 2 1 2 5 5 9 8 4 6 8 6 10 6 5 8 8 5 9 17 22 18 16 7 11 7 5 3 5 10 6 11 11 22 25 30 13 14
8 14 4 3 6 8 5 5 2 3 8 4 4 5 2 5 3 10 7 11 7 5 6 11 3 8 11 13 10 10 12 16 5 5 11 11 9 10 5 3 8 5 16 9 10
7 4 9 7 9 7 11 5 7 2 10 4 10 3 6 8 9 5 6 8 7 4 7 5 5 9 12 19 17 15 4 14 14 7 12 14 18 17 15 12 11 15 24 23 21
6 2 4 5 7 8 7 9 10 6 8 4 7 10 9 9 12 12 12 6 9 13 4 3 8 13 16 20 21 21 20 16 18 16 15 18 20 17 15 14 12 18 21 20 20
6 6 10 15 8 8 4 8 11 12 1 6 9 11 6 6 9 12 13 8 4 9 6 8 8 9 14 17 19 22 22 22 20 20 21 20 22 16 19 14 17 17 20 15 20
8 7 7 10 8 7 9 9 9 5 5 4 9 9 10 4 8 9 8 9 10 8 9 8 8 9 16 16 17 18 17 21 22 20 20 18 18 13 9 15 18 19 18 18 21

GFSSW_850_spd_279.txt.gz
Wind_Speed
9 10 11 12 12 12 13 13 14 13 14 13 14 15 16 17 17 20 20 9 6 10 10 5 5 6 7 11 15 22 3 9 15 8 6 5 11 16 21 15 11 12 30 34 29
10 11 12 12 13 13 13 14 13 13 13 13 13 14 15 18 20 19 3 5 10 13 9 7 5 3 5 6 8 4 4 10 16 10 5 9 7 20 16 26 19 30 29 28 29
11 13 13 13 14 14 15 14 13 13 12 12 13 13 13 15 17 5 0 1 5 8 8 10 12 10 13 16 22 18 9 14 24 26 26 9 20 19 26 11 24 26 25 23 24
13 14 14 14 15 15 14 14 13 11 11 11 11 10 11 10 3 2 2 1 3 7 9 5 10 17 7 8 24 7 23 25 29 30 26 4 2 9 29 21 36 40 34 31 24
14 15 15 15 15 15 14 12 11 11 10 10 9 7 9 6 10 5 2 1 2 8 11 5 12 13 6 13 18 8 14 31 32 28 27 15 6 9 16 46 36 35 34 34 29
14 16 16 16 16 15 13 9 11 8 7 7 6 7 5 4 3 4 5 3 2 5 8 6 12 13 18 14 5 19 16 25 24 28 23 8 4 0 21 36 32 34 32 34 31
15 16 16 16 16 15 9 9 10 7 6 5 4 6 8 13 2 5 2 3 1 3 10 16 17 19 14 8 16 21 9 10 12 11 10 21 3 7 38 33 35 30 31 18 28
16 16 17 16 16 13 9 10 8 5 4 4 4 5 7 1 3 8 6 6 5 9 11 11 9 11 10 16 20 8 5 6 10 8 17 10 7 9 39 37 29 36 24 24 32
17 16 16 16 15 11 10 8 6 1 2 3 0 4 8 9 12 8 9 8 6 6 7 8 10 10 13 6 7 6 6 8 11 16 11 10 7 8 21 37 36 44 55 53 45
17 17 15 15 13 10 8 6 5 1 2 2 5 6 7 14 3 8 10 9 5 7 7 5 6 4 4 2 7 7 6 9 9 13 9 9 8 9 17 18 46 44 53 40 33
17 17 14 13 9 6 8 4 7 2 8 11 11 8 8 8 6 6 10 7 9 8 6 13 2 8 14 14 12 9 6 8 9 13 2 9 2 6 11 5 32 33 29 26 41
17 16 13 10 5 4 7 10 6 8 11 17 17 13 8 3 6 10 10 8 12 8 10 1 9 15 9 4 4 8 8 11 11 9 3 3 5 6 9 7 30 28 29 33 29
17 16 12 8 2 5 6 7 11 11 5 13 19 10 7 9 11 15 14 14 10 9 10 8 10 8 2 7 7 6 6 8 9 11 9 4 7 9 10 16 18 27 27 43 47
17 16 12 6 2 7 4 8 8 12 3 6 9 6 9 9 6 14 14 15 6 10 10 8 8 5 5 4 6 5 10 8 12 5 4 3 6 8 8 11 8 20 20 51 57
17 15 9 5 3 6 10 11 15 0 3 10 8 14 11 11 13 7 11 12 10 12 6 12 7 3 1 9 9 8 6 6 7 8 7 12 3 8 10 8 8 11 31 29 36
16 14 7 4 2 8 11 11 8 2 5 5 8 8 9 16 10 12 8 9 14 8 11 11 10 4 2 8 6 7 7 9 7 2 5 7 4 10 9 7 9 9 25 31 34
15 13 8 8 4 6 14 10 1 3 3 7 6 6 12 10 7 8 8 6 4 3 4 8 4 5 8 2 8 3 1 3 5 1 8 6 6 8 10 27 26 7 10 14 14
15 12 8 8 8 7 8 3 4 7 8 4 5 1 5 1 3 3 4 6 7 1 5 4 7 11 4 0 2 6 5 5 3 5 6 6 3 4 21 30 46 46 42 39 27
16 11 5 2 2 5 7 3 5 5 14 4 2 2 5 3 1 6 5 4 3 7 3 4 7 6 16 8 4 7 4 2 7 6 4 2 9 17 22 21 24 23 33 35 18
18 13 6 4 4 4 1 5 5 10 6 7 3 3 6 5 6 5 4 5 4 8 11 4 3 5 12 7 6 5 2 6 5 2 7 5 5 2 10 10 15 13 18 26 26
13 7 5 8 5 4 3 6 11 13 8 5 7 7 7 6 2 3 4 9 8 6 4 4 1 6 8 3 9 8 3 6 3 2 3 3 2 6 2 6 4 9 13 16 15
5 2 7 2 3 5 4 5 7 10 7 2 3 5 6 8 7 5 6 4 5 4 3 2 2 3 7 14 10 7 3 4 5 6 1 3 6 8 8 8 11 11 8 15 13
12 8 8 6 2 4 9 14 3 4 3 2 3 4 5 6 5 5 3 5 4 5 3 4 4 4 9 6 6 5 6 3 3 2 4 2 5 4 8 4 9 13 12 14 16
5 3 4 10 12 7 6 7 2 5 2 5 6 9 5 3 5 4 4 5 7 7 8 5 1 3 5 6 4 7 10 3 6 3 4 8 7 10 2 6 9 14 21 17 18
2 3 8 4 7 7 8 9 9 2 4 4 1 6 7 2 6 7 6 2 9 12 5 4 2 3 8 11 13 12 12 9 5 6 5 10 7 6 9 6 9 18 25 24 20
8 7 11 13 13 6 4 5 9 10 1 6 6 6 6 4 6 6 6 6 6 6 5 4 3 4 5 11 14 17 13 11 10 11 11 12 12 8 2 21 23 22 24 22 19
10 5 4 10 8 5 5 7 6 4 6 9 9 6 9 8 10 8 6 7 5 3 4 4 1 0 4 8 14 9 9 9 9 9 8 10 12 9 12 16 19 21 21 20 19

GFSSW_850_spd_282.txt.gz
Wind_Speed
10 11 12 12 13 13 13 14 15 14 14 15 15 15 14 17 17 21 21 12 5 2 7 7 3 4 7 4 7 4 2 5 4 2 2 0 6 14 16 21 37 14 16 31 33
10 11 12 13 13 14 13 14 15 14 14 15 14 13 14 16 19 16 6 3 3 3 5 4 2 5 4 3 4 4 3 4 8 5 8 3 18 18 11 20 8 19 26 34 35
11 13 13 14 15 14 14 15 15 14 14 13 13 11 13 14 14 5 4 3 2 3 2 4 4 5 3 5 5 2 5 5 16 26 24 14 28 18 26 15 33 36 42 35 37
13 14 14 14 15 15 15 14 13 11 11 11 10 9 11 8 1 5 5 4 4 2 5 6 3 3 2 3 8 1 14 19 23 32 17 9 15 17 27 9 32 35 45 42 42
14 14 15 15 15 16 15 12 11 12 10 8 7 8 7 5 6 4 4 4 3 1 7 3 4 3 4 5 8 5 12 27 32 31 29 13 7 15 21 24 34 40 41 40 35
15 16 15 16 15 15 14 10 12 11 8 7 5 6 4 3 2 2 8 2 4 2 11 7 5 7 10 5 3 8 13 19 17 19 16 3 6 9 8 37 27 36 34 33 33
15 16 16 16 15 15 11 11 12 9 6 6 4 4 7 8 5 1 8 2 4 3 4 9 13 10 15 8 10 10 6 10 8 6 5 2 3 5 28 33 35 36 36 37 34
15 16 16 15 14 13 10 10 10 7 3 3 3 5 6 1 7 8 3 5 0 4 10 10 11 9 3 11 11 7 4 6 8 5 11 6 8 5 37 38 32 26 37 43 38
16 16 15 14 13 10 9 8 7 4 3 2 2 4 5 5 9 7 6 6 7 3 7 10 10 5 7 4 6 6 4 6 10 3 5 5 10 12 36 34 27 36 45 34 31
16 15 15 13 11 8 8 8 6 5 5 4 6 6 2 2 2 10 9 10 5 6 7 7 2 2 4 4 4 7 4 6 7 9 4 8 13 20 32 34 33 32 24 29 31
16 15 13 12 8 5 10 4 6 3 11 11 13 15 16 4 8 7 5 2 7 7 3 3 4 5 11 10 8 3 5 8 5 5 2 6 5 20 24 16 20 24 31 33 32
16 14 12 9 5 5 7 8 8 8 9 15 15 19 17 9 4 4 9 8 4 6 2 6 7 14 7 8 10 10 7 8 7 8 5 9 1 4 24 28 35 34 36 37 34
15 13 10 5 2 4 5 7 8 6 4 12 12 15 14 9 8 6 14 8 6 6 6 5 13 7 6 9 5 4 4 5 6 8 3 4 8 7 3 30 33 32 51 45 49
15 13 10 2 0 6 10 12 10 15 4 6 4 4 9 4 4 15 19 8 2 5 4 6 5 4 4 2 3 5 3 5 5 6 2 4 3 8 15 14 13 32 39 46 50
15 12 9 3 3 5 9 8 10 3 3 4 4 3 8 8 3 9 21 10 7 8 4 9 7 6 4 2 3 8 2 2 3 5 3 9 6 9 18 20 23 12 46 52 58
14 13 8 3 4 5 5 5 6 4 3 3 8 7 6 10 4 18 15 13 5 3 1 7 11 1 3 2 1 4 5 8 5 4 5 5 5 9 8 9 17 22 10 28 32
13 12 8 5 7 5 7 4 4 3 5 4 5 5 7 5 5 7 6 4 4 3 5 6 5 7 4 4 8 8 7 4 5 5 4 2 8 2 5 4 10 12 16 9 29
14 11 8 4 6 3 2 5 1 4 5 6 4 4 6 7 5 9 5 2 3 3 2 4 8 7 7 3 4 2 6 5 1 2 5 7 2 4 3 4 16 24 23 26 21
14 10 3 8 7 4 3 4 6 3 4 7 5 3 4 2 3 4 3 4 3 4 6 3 4 4 2 5 4 6 5 2 3 2 4 0 3 5 1 8 21 17 20 16 17
14 8 4 8 6 3 4 4 4 3 5 4 5 5 5 5 3 5 2 5 3 3 7 4 0 3 7 9 9 6 1 3 4 2 2 1 2 4 5 3 9 5 8 14 8
10 3 7 6 9 3 3 6 5 6 4 4 2 4 3 4 5 2 5 3 5 4 10 3 4 6 5 1 2 6 4 6 3 4 4 1 5 7 8 5 10 12 13 11 8
4 2 9 7 1 1 2 4 4 3 2 3 2 2 2 4 5 4 2 2 4 2 3 2 4 2 7 5 6 0 3 4 4 4 1 3 6 3 10 7 5 13 11 11 8
11 5 4 9 1 2 5 6 12 4 3 3 4 2 2 2 2 3 1 3 6 3 5 1 2 3 9 6 7 4 3 3 4 3 4 5 5 4 4 3 6 19 15 12 9
5 4 3 3 3 1 4 4 6 4 3 5 2 4 5 4 4 2 2 3 4 3 5 5 3 6 7 4 2 5 6 2 3 2 3 5 5 8 5 7 9 18 17 15 13
4 2 6 3 5 5 3 3 4 6 6 2 3 1 1 2 4 4 5 7 9 4 2 4 3 4 4 5 1 4 8 7 5 5 5 7 6 8 4 7 14 17 16 13 9
4 5 7 7 11 5 3 4 3 4 2 3 4 5 6 5 2 2 1 2 2 6 6 6 2 2 3 4 3 4 9 9 9 9 6 8 7 3 19 25 20 17 18 13 12
4 3 2 5 6 3 1 7 8 0 12 8 5 5 6 3 1 2 4 3 3 3 1 2 1 2 4 4 4 1 8 7 4 4 5 4 8 16 10 14 17 18 15 11 8

GFSSW_850_spd_285.txt.gz
Wind_Speed
10 12 12 12 14 14 14 15 16 16 15 15 14 13 14 14 15 17 13 6 3 4 3 3 2 6 8 7 7 4 4 2 4 4 5 9 5 7 4 11 13 14 4 11 30
12 12 13 13 13 14 15 15 16 15 15 14 13 12 13 13 15 4 7 4 4 2 2 3 6 7 5 4 5 4 4 8 6 4 6 5 4 10 4 3 5 14 7 20 34
13 13 13 13 13 14 14 16 14 14 13 12 11 10 10 10 8 4 6 5 2 2 3 7 6 4 2 2 5 5 4 5 11 22 14 7 9 16 19 7 21 25 26 35 39
13 14 13 14 14 14 15 14 12 11 13 10 9 8 7 5 2 4 5 4 3 3 6 7 2 2 1 2 3 0 9 7 14 24 11 7 10 9 26 22 18 29 35 41 43
13 14 14 14 14 14 14 12 10 11 10 8 7 6 4 2 3 3 6 4 2 4 8 6 4 2 1 3 1 5 7 15 24 25 22 9 19 14 31 15 13 31 40 37 42
14 15 15 15 14 15 13 10 11 11 7 6 5 4 2 2 1 3 8 1 4 4 7 2 4 8 5 3 3 4 8 13 13 21 12 8 8 18 24 16 25 40 39 40 42
14 15 16 15 14 14 11 10 11 8 4 4 4 3 5 4 4 1 4 1 0 3 1 5 9 6 6 4 5 6 6 8 4 5 4 10 4 7 24 28 37 39 40 40 42
14 15 16 15 14 11 9 9 9 7 3 3 3 4 4 2 7 4 2 4 2 2 5 7 7 7 3 6 8 5 5 5 6 4 4 4 7 5 30 40 33 37 39 40 41
15 15 15 14 12 9 8 9 7 5 6 5 3 5 3 3 5 3 7 3 5 6 6 8 9 2 2 4 5 7 2 3 11 4 4 3 9 7 27 27 28 33 34 41 42
15 15 14 13 9 6 9 6 6 5 5 6 5 4 1 6 2 3 5 4 8 6 4 2 2 3 4 4 3 2 4 5 6 7 4 4 7 7 24 26 25 26 36 43 44
15 15 13 11 6 4 10 4 6 2 15 10 11 10 12 1 4 5 7 5 6 3 2 4 5 5 7 7 4 1 4 5 6 8 3 6 7 3 13 15 16 27 35 44 49
15 14 12 9 3 4 7 6 7 8 9 16 13 17 12 7 4 6 8 4 2 1 2 6 4 10 6 5 6 4 3 9 5 4 3 17 20 9 9 14 13 18 33 46 42
15 13 10 6 2 3 5 6 3 8 3 9 7 7 6 9 7 8 10 4 2 2 4 4 11 6 6 5 2 4 5 4 4 3 4 9 11 14 9 9 20 25 32 32 37
15 13 10 3 1 4 6 3 6 6 4 5 3 3 7 7 5 14 14 4 1 2 2 4 4 4 3 4 6 4 6 4 2 5 2 4 1 5 6 8 7 13 25 44 50
14 12 9 2 2 1 5 4 6 4 3 2 3 2 7 6 1 5 15 8 4 3 5 7 7 8 2 4 2 5 2 3 2 5 4 7 6 7 5 8 8 15 19 27 47
13 13 9 5 6 2 5 9 4 4 1 2 5 5 4 2 2 2 9 8 3 1 1 7 6 2 3 4 3 3 3 4 5 2 4 5 6 5 4 6 9 14 26 15 16
12 13 9 6 5 3 6 4 4 3 5 3 5 4 4 5 3 5 5 5 3 3 4 5 4 7 3 7 7 8 7 4 5 5 3 3 6 6 7 7 6 7 25 14 7
12 12 9 5 9 7 5 5 1 2 5 4 3 3 6 5 6 4 5 2 3 4 2 2 6 5 6 1 3 4 5 5 1 0 4 4 4 5 7 9 7 6 14 14 5
13 11 6 5 8 6 4 3 6 4 5 6 4 3 5 6 2 3 5 3 1 5 6 3 4 4 2 2 2 2 5 1 6 3 2 3 3 5 5 9 10 3 5 5 2
13 9 7 10 5 4 4 4 4 4 5 3 3 4 3 5 5 3 3 2 2 3 4 4 2 3 4 2 7 6 1 3 4 1 1 4 4 4 6 8 2 3 5 5 2
8 2 8 10 6 1 3 6 5 10 6 3 2 2 2 3 2 3 2 4 4 3 8 3 3 6 4 5 3 5 4 7 4 3 4 1 6 6 7 6 6 6 3 1 3
4 1 7 12 1 1 2 4 4 7 18 1 4 3 2 3 4 2 3 1 4 1 3 2 4 1 4 6 4 3 3 4 4 2 0 3 6 4 6 8 6 10 7 3 2
10 3 2 10 2 2 5 4 3 4 3 0 2 3 1 2 2 3 2 3 4 3 4 4 2 3 8 6 6 6 3 4 4 3 4 5 5 1 5 4 4 15 10 8 8
5 3 3 4 5 3 2 3 5 10 2 3 3 4 4 3 6 2 4 7 4 6 7 4 3 6 6 5 3 2 1 1 3 2 3 5 6 11 5 3 11 17 14 10 9
5 1 2 2 4 3 1 3 3 5 6 5 4 4 4 2 2 2 3 4 7 8 4 4 4 4 5 5 3 3 6 3 6 6 5 7 8 11 5 9 18 23 17 11 7
2 2 1 1 5 4 5 5 6 5 5 3 4 3 3 5 3 5 2 0 1 5 3 4 1 1 3 2 5 4 7 10 8 7 7 8 9 7 6 13 16 19 13 7 6
1 1 2 3 3 3 1 3 3 7 4 5 9 4 4 4 4 1 2 2 1 1 2 2 3 3 4 2 5 4 8 6 2 4 3 5 5 3 3 9 15 16 12 7 5

GFSSW_850_spd_288.txt.gz
Wind_Speed
11 12 13 14 15 15 14 15 15 15 15 14 13 11 11 10 11 12 7 3 3 6 7 6 7 8 9 8 5 4 4 2 4 4 3 4 3 7 3 5 11 12 6 6 27
11 13 14 15 15 15 15 15 15 14 13 12 11 9 8 8 7 7 7 2 6 4 6 7 10 9 5 4 5 4 4 9 6 4 3 4 3 12 7 9 9 16 10 12 28
12 13 14 14 15 15 14 14 14 11 11 11 9 8 5 5 2 4 5 3 4 5 8 13 13 7 3 3 3 4 5 5 6 10 7 6 6 8 9 6 15 17 20 25 31
13 13 14 15 15 15 14 13 11 9 10 8 7 5 4 2 4 3 3 2 2 7 13 12 7 5 4 2 3 1 7 6 8 7 6 5 5 6 21 19 7 13 23 27 33
13 14 14 15 14 15 14 10 9 9 8 6 5 3 1 0 4 3 2 2 2 9 11 7 5 5 3 4 3 3 4 7 12 16 12 9 16 8 24 29 11 9 23 28 34
14 15 15 15 14 14 12 9 9 9 4 5 4 2 0 2 4 4 3 2 4 8 8 4 3 2 2 3 3 5 6 12 11 13 6 9 5 7 17 29 17 15 25 29 35
15 15 15 15 14 12 9 9 9 8 4 4 4 3 3 3 6 2 3 3 4 5 3 1 4 2 1 1 2 3 5 7 3 2 2 9 1 9 19 20 20 20 27 30 34
15 15 15 15 13 11 8 8 8 7 7 6 5 4 1 4 6 1 3 2 3 3 4 4 6 5 2 2 5 4 5 4 5 7 1 6 8 13 17 21 24 26 32 32 35
15 15 15 14 12 8 9 9 5 4 5 6 3 5 2 2 3 5 4 3 3 6 5 6 3 0 1 4 5 7 0 2 10 3 2 2 7 10 10 26 26 32 39 39 38
15 15 14 13 9 7 10 5 5 4 4 5 3 3 3 5 3 4 5 2 3 5 1 1 1 3 4 4 2 1 2 4 4 4 10 6 6 7 7 3 6 11 29 38 42
15 14 13 11 6 5 10 4 6 3 11 6 7 6 5 3 2 4 6 2 2 2 3 3 5 2 5 6 4 1 2 1 5 4 7 4 12 8 8 4 8 7 17 29 29
15 14 12 9 2 3 7 5 5 6 8 10 10 12 8 6 1 5 7 3 2 0 1 6 1 5 4 3 4 2 1 3 5 2 8 13 13 8 8 1 6 12 20 32 34
16 14 11 8 1 1 4 5 4 8 2 5 3 5 3 8 4 4 9 5 3 1 2 4 5 3 2 2 2 2 3 3 3 4 5 3 8 11 5 9 10 9 17 28 35
15 14 11 6 1 4 3 3 7 9 4 4 2 1 6 6 2 8 12 3 1 2 4 3 4 6 3 1 6 1 6 1 1 2 2 3 2 5 7 10 7 18 19 18 18
15 13 10 5 4 3 3 4 8 6 3 1 2 2 6 5 1 2 12 5 3 1 4 5 5 6 4 2 4 2 4 4 2 4 3 7 5 6 6 7 8 15 25 25 3
14 14 11 8 6 5 4 7 2 5 1 1 5 3 4 1 1 3 5 4 2 3 2 4 3 1 2 3 3 3 4 7 4 3 4 3 4 4 3 4 9 14 24 16 11
14 13 11 8 4 5 4 1 5 4 4 2 3 3 3 2 2 2 4 3 2 3 4 5 4 5 2 5 4 8 7 4 5 5 4 1 2 7 4 6 6 12 23 13 7
14 11 11 8 7 7 2 5 3 3 5 4 2 2 3 3 3 2 4 2 2 5 2 3 6 5 7 2 1 4 4 5 3 2 4 3 2 5 6 6 10 17 16 9 6
13 9 7 4 8 8 4 3 6 5 4 5 3 4 3 3 1 3 2 4 4 5 6 4 3 3 5 4 2 1 4 2 6 3 2 2 5 7 3 6 11 17 14 13 11
13 6 4 8 7 6 4 4 3 4 4 1 2 1 2 5 3 3 0 2 2 2 4 3 1 2 3 1 8 5 2 3 4 2 2 4 4 5 5 8 5 8 6 10 11
9 1 4 9 5 2 3 5 4 9 2 1 3 3 2 2 1 2 2 2 3 3 5 3 3 5 2 5 2 4 3 6 4 3 5 2 5 5 6 7 7 9 1 3 7
4 2 0 11 3 3 2 4 3 5 3 1 3 3 2 1 3 3 1 3 8 1 3 2 5 1 0 6 3 2 3 3 4 2 2 3 6 4 5 6 7 10 7 2 1
10 3 3 11 2 1 4 4 2 4 3 2 2 1 1 3 3 2 3 4 11 5 3 4 2 3 6 5 2 5 2 4 4 2 4 5 5 2 3 4 9 11 9 6 3
5 3 3 4 4 4 1 2 4 5 1 2 2 3 3 3 6 3 2 6 5 5 8 3 3 6 6 5 3 2 2 2 4 3 3 6 5 10 4 5 8 13 13 10 6
5 1 1 1 4 3 2 3 3 6 7 8 4 3 3 3 2 2 2 3 5 7 5 4 3 2 3 4 3 4 5 5 6 6 5 7 8 11 7 6 15 12 12 9 5
2 1 2 2 3 1 3 1 2 5 5 4 4 1 3 5 4 7 4 1 1 5 3 3 1 1 3 2 5 4 7 7 7 6 7 8 11 6 11 5 13 16 12 7 4
1 1 1 3 2 2 1 2 1 2 1 4 3 3 3 4 6 6 3 4 2 2 2 2 5 3 4 1 2 4 9 9 5 4 5 6 8 3 1 5 10 15 11 7 4

GFSSW_850_spd_291.txt.gz
Wind_Speed
11 12 12 14 14 13 14 14 13 12 11 10 9 8 7 6 5 6 3 3 8 12 8 10 12 11 9 5 5 3 2 4 3 4 4 3 3 4 3 4 5 6 2 3 21
12 12 13 14 14 14 14 13 13 11 9 9 7 6 5 3 2 6 5 7 9 9 9 8 13 14 5 3 3 2 2 5 2 1 1 6 7 6 4 6 7 7 9 7 23
12 13 13 13 13 14 14 14 12 9 7 8 6 4 2 2 6 4 6 6 5 7 9 10 15 12 4 4 3 3 3 3 5 8 8 9 10 6 7 10 14 15 15 18 27
14 13 13 13 13 14 14 13 9 7 7 6 4 2 1 4 3 2 5 5 6 10 16 14 11 5 5 6 4 3 7 5 7 6 5 7 5 6 12 11 5 9 16 22 27
13 13 13 14 13 14 13 10 8 8 6 2 2 1 3 4 4 4 5 5 7 14 11 8 5 5 5 5 7 4 4 6 9 9 11 10 15 10 17 14 10 10 14 22 23
13 14 14 14 13 13 11 8 9 6 2 2 2 2 4 5 6 5 6 6 10 12 9 5 3 4 6 3 4 4 7 11 8 4 7 7 3 5 7 10 12 11 14 20 25
13 14 15 14 12 11 8 6 7 6 4 3 3 2 4 5 7 7 8 8 10 7 4 3 3 3 1 3 1 2 6 7 4 1 3 7 3 10 11 8 13 15 15 19 24
14 15 15 14 11 9 7 7 6 3 5 4 2 3 3 8 5 4 6 7 7 3 1 0 4 1 1 2 2 2 1 2 6 7 3 3 6 5 18 8 12 15 16 20 22
14 15 15 13 10 7 8 8 3 2 3 4 3 3 4 3 3 5 7 6 4 5 2 3 1 2 2 2 1 2 1 3 3 11 1 3 8 17 15 7 10 10 10 10 6
14 14 14 13 9 6 9 4 4 2 1 2 3 3 4 2 6 7 8 4 3 2 4 1 2 1 2 2 4 2 2 3 3 4 14 5 9 10 7 5 6 7 11 5 3
14 14 14 12 7 5 9 4 5 2 5 2 2 1 3 6 7 11 8 4 3 2 2 2 2 5 1 3 2 2 1 4 3 2 6 7 11 13 6 6 8 11 13 10 5
15 14 14 11 4 3 5 4 6 5 5 4 7 6 4 3 5 8 8 3 2 2 0 1 5 1 1 4 4 3 3 1 3 11 4 12 15 11 16 13 10 15 18 13 12
15 15 13 11 1 0 4 6 7 7 2 3 1 3 4 7 3 9 10 6 2 1 1 0 3 2 4 6 4 3 3 1 1 4 3 2 9 10 5 8 12 20 18 16 11
15 15 13 8 2 2 1 5 6 7 2 0 2 4 7 5 3 7 11 3 2 1 3 2 3 2 4 3 1 2 6 3 4 4 2 4 3 3 8 7 15 21 25 23 15
15 15 12 7 5 3 2 6 7 4 3 2 2 4 7 3 7 4 12 2 2 1 2 3 5 6 6 3 3 1 2 2 4 2 2 6 0 3 3 6 12 17 22 19 14
14 15 12 8 5 6 3 7 2 0 2 3 4 5 4 1 2 6 4 4 2 2 1 2 3 2 3 2 3 6 2 3 3 0 2 3 4 2 3 4 8 14 17 13 9
14 13 12 8 2 6 4 3 0 2 2 2 2 3 2 4 3 3 5 5 2 3 2 2 2 4 2 1 2 2 1 2 1 0 2 1 3 2 3 4 5 9 12 10 5
14 11 9 7 6 8 3 2 3 0 1 2 2 3 3 3 2 2 5 5 1 3 2 1 4 3 6 3 2 4 2 2 3 2 2 1 2 3 4 6 6 6 5 6 2
13 7 5 5 8 9 4 2 3 4 1 2 2 3 2 2 1 2 2 3 3 5 4 3 2 1 5 4 2 2 1 2 3 1 3 1 2 6 4 6 7 4 4 4 3
13 4 3 6 10 9 2 3 2 3 3 2 2 1 3 2 4 3 2 1 2 2 2 5 3 0 1 2 9 3 4 2 1 2 3 2 3 3 3 8 6 5 2 4 5
10 0 2 10 8 4 2 4 3 6 3 2 2 3 3 3 3 3 3 3 3 3 3 3 2 3 3 3 1 2 1 4 1 2 4 5 3 2 5 4 7 5 3 3 5
4 1 1 12 2 1 2 3 1 2 2 3 2 2 2 2 3 2 3 2 5 3 4 1 2 2 2 5 2 2 3 3 3 3 0 2 4 1 5 4 5 5 4 1 2
10 2 2 12 3 2 2 1 2 2 2 1 2 1 2 3 3 1 3 2 6 2 4 5 1 4 3 2 2 2 2 3 4 1 5 5 2 3 1 2 3 7 5 4 4
5 1 2 3 3 3 2 1 1 3 1 2 2 2 3 2 3 4 3 4 3 4 5 2 3 3 7 2 2 3 6 6 3 4 4 8 11 8 9 9 12 10 6 7 6
3 1 1 1 3 2 1 0 1 2 5 4 2 2 4 3 2 3 2 3 4 2 3 1 3 2 2 2 3 5 9 9 10 9 8 9 10 16 15 13 16 14 11 11 8
1 2 2 2 1 2 2 1 1 1 3 2 2 2 2 3 2 6 5 3 2 3 2 2 3 2 3 3 7 11 13 12 12 12 14 16 18 14 14 9 9 8 13 12 9
2 2 2 2 2 2 2 2 2 0 2 3 1 2 4 3 4 6 4 5 3 2 3 2 5 3 8 1 3 9 16 18 15 11 10 12 14 3 6 9 7 9 11 10 8

GFSSW_850_spd_297.txt.gz
Wind_Speed
11 12 12 13 13 13 13 13 13 13 11 10 9 8 7 5 4 3 3 6 9 8 5 8 8 9 9 12 9 9 9 12 13 2 11 7 3 6 2 3 3 5 6 10 18
11 12 13 13 13 14 13 13 12 11 8 7 7 6 4 3 3 7 8 5 9 9 7 9 9 10 13 11 8 11 10 9 8 7 3 3 2 4 3 8 7 7 6 15 18
12 12 13 13 14 14 14 13 11 8 7 7 6 3 4 6 3 4 3 5 10 11 7 8 7 10 13 9 10 13 14 4 3 6 5 6 7 3 4 7 6 11 14 17 18
12 13 13 14 14 14 13 11 10 8 7 6 4 3 6 6 1 4 3 6 9 10 5 8 10 13 11 8 10 10 10 6 9 5 11 10 6 5 6 5 5 3 16 16 15
13 13 14 15 14 14 13 9 9 8 5 3 2 5 8 8 5 4 5 7 10 5 8 8 10 10 10 7 3 9 4 7 10 10 12 8 11 9 9 5 7 4 12 15 14
13 14 15 16 14 14 11 8 8 7 2 1 3 6 6 10 4 6 7 11 7 8 7 5 5 6 4 4 9 3 5 7 9 14 12 12 11 4 4 4 5 4 10 13 13
13 14 15 16 14 12 9 8 7 5 3 2 3 5 4 4 6 8 10 8 8 6 5 4 3 7 2 5 6 6 10 12 10 9 8 7 11 12 11 4 5 5 7 10 11
13 14 15 16 13 11 8 10 7 2 3 2 4 6 1 6 7 9 11 8 9 7 5 4 5 10 8 3 8 12 13 11 9 5 6 9 15 17 6 6 8 7 5 6 11
13 14 15 15 12 9 8 8 3 2 1 3 5 5 7 8 9 11 11 9 8 7 7 6 7 13 7 11 12 10 10 12 8 1 2 9 12 10 4 6 7 8 4 8 10
13 14 14 15 12 7 8 5 3 1 2 4 5 7 9 13 12 13 12 7 9 8 9 10 10 11 12 14 7 6 6 2 5 6 5 3 8 8 4 3 2 4 7 8 10
14 14 14 13 11 5 7 3 3 2 10 7 11 6 12 9 12 14 12 9 10 11 14 16 12 6 8 8 9 5 6 5 6 3 8 4 7 10 11 10 7 4 2 5 9
15 14 13 12 8 2 4 4 5 5 9 10 7 6 6 10 14 14 13 13 12 15 5 10 6 7 2 1 4 4 5 6 4 2 14 7 8 6 10 13 12 10 10 7 3
15 14 12 11 4 3 3 2 6 5 8 10 11 12 12 11 13 17 15 14 13 8 11 10 13 5 6 8 9 1 9 5 4 8 10 9 8 8 11 13 14 13 14 15 10
15 14 12 6 2 4 4 3 6 3 5 11 12 10 11 9 8 15 15 10 8 12 7 4 6 7 10 4 11 10 4 4 6 9 7 4 6 9 8 12 12 14 15 18 17
15 14 11 8 6 4 1 5 5 2 6 17 16 12 14 16 16 12 14 9 12 5 9 10 10 10 12 11 6 8 4 7 7 10 8 12 7 9 29 13 10 12 12 15 15
15 15 10 8 7 8 6 6 4 7 4 10 11 13 14 13 14 16 14 10 3 4 11 10 1 7 11 3 3 4 9 11 11 12 9 2 8 10 8 5 8 13 14 13 13
15 15 12 10 3 7 5 6 7 9 12 11 16 18 17 13 11 15 17 14 10 9 10 5 12 6 9 11 9 7 10 9 9 7 9 3 7 8 15 7 8 9 12 12 11
15 14 12 12 8 6 4 7 9 4 10 13 15 15 14 13 14 17 14 13 11 13 8 8 10 11 2 8 10 4 7 7 7 5 5 7 2 7 11 6 8 8 9 8 9
15 8 8 7 8 7 10 9 7 5 7 10 11 14 13 15 6 12 14 13 8 10 5 5 4 5 1 4 7 6 8 9 9 8 7 4 6 10 7 7 5 9 4 7 6
17 7 10 10 9 9 10 15 6 2 6 8 15 15 14 14 11 12 13 6 6 4 5 3 3 8 9 6 6 10 8 6 8 3 13 4 4 4 12 7 8 7 10 5 3
10 8 6 7 8 13 10 15 11 5 6 8 14 11 13 14 16 13 10 8 5 9 8 9 4 5 6 11 3 7 9 4 5 6 9 9 6 10 6 6 2 8 9 6 4
9 9 4 10 12 16 11 14 2 9 10 7 8 8 14 11 10 14 10 5 3 4 10 9 4 9 8 7 2 7 13 2 6 4 6 6 12 5 0 3 6 12 2 6 2
8 11 3 12 9 10 12 6 10 9 10 8 8 8 6 7 8 11 5 6 3 6 4 4 7 9 13 12 9 10 12 8 6 6 13 12 9 7 5 2 4 7 7 7 5
8 5 10 15 20 11 11 12 12 7 9 6 8 4 8 8 6 8 4 2 4 4 1 2 9 11 12 12 4 7 8 8 9 9 13 12 15 7 10 7 9 14 15 13 12
8 7 5 7 14 12 11 8 12 8 12 10 10 12 11 9 12 11 10 7 7 5 6 4 12 13 16 14 14 14 18 18 17 16 16 18 19 16 14 9 9 12 15 17 20
8 6 4 12 7 10 7 12 11 8 3 11 11 13 12 11 10 10 9 11 9 9 9 5 10 12 16 15 18 19 17 20 20 20 21 20 20 17 16 19 11 14 15 14 17
6 9 8 6 10 11 13 14 9 1 3 5 5 4 10 2 4 7 6 6 6 3 9 8 9 11 15 14 16 14 14 19 19 19 19 18 17 13 9 10 9 12 9 13 13